Charles City, IA

5:38 AM CDT on March 27, 2017 (GMT -0500)
Charles City Municipal

Weather History for KCCY - January, 2012

Change the Weather History Date:

Saturday, January 21, 2012

  Actual Average Record
Temperature  
Mean Temperature 4 °F -  
Max Temperature 17 °F 27 °F 48 °F (1964)
Min Temperature -9 °F 10 °F -28 °F (1970)
Degree Days  
Heating Degree Days 61    
Moisture  
Dew Point -2 °F    
Average Humidity 81    
Maximum Humidity 86    
Minimum Humidity 77    
Precipitation  
Precipitation 0.00 in - - ()
Sea Level Pressure  
Sea Level Pressure 30.14 in    
Wind  
Wind Speed 6 mph (ESE)    
Max Wind Speed 20 mph    
Max Gust Speed 24 mph    
Visibility 10 miles    
Events Snow    
Averages and records for this station are not official NWS values.
T = Trace of Precipitation, MM = Missing Value Source: NWS Daily Summary

Daily Weather History Graph

Daily Weather History Graph

Search for Another Location

Airport or City:

Trip Planner

Search our weather history database for the weather conditions in past years. The results will help you decide how hot, cold, wet, or windy it might be!

Date:

Astronomy

Jan. 21, 2012 Rise Set
Actual Time 7:35 AM CST 5:07 PM CST
Civil Twilight 7:04 AM CST 5:38 PM CST
Nautical Twilight 6:30 AM CST 6:13 PM CST
Astronomical Twilight 5:56 AM CST 6:47 PM CST
Moon 6:08 AM CST (1/21) 3:43 PM CST (1/21)
Length of Visible Light 10h 34m
Length of Day
9h 32m
Waning Crescent, 3% of the Moon is Illuminated
Jan 21
Waning Crescent
Jan 23
New
Jan 30
First Quarter
Feb 7
Full
Feb 14
Last Quarter

Hourly Weather History & Observations

Time (CST) Temp. Windchill Dew Point Humidity Pressure Visibility Wind Dir Wind Speed Gust Speed Precip Events Conditions
12:15 AM -2.2 °F -14.2 °F -5.8 °F 85% 30.19 in 10.0 mi NNE 5.8 mph - N/A   Clear
12:35 AM -2.2 °F -14.2 °F -7.6 °F 78% 30.19 in 10.0 mi NNE 5.8 mph - N/A   Clear
12:55 AM -5.8 °F - -9.4 °F 84% 30.18 in 10.0 mi Calm Calm - N/A   Clear
1:15 AM -4.0 °F -16.3 °F -7.6 °F 85% 30.18 in 10.0 mi North 5.8 mph - N/A   Clear
1:35 AM -4.0 °F -17.8 °F -9.4 °F 78% 30.20 in 10.0 mi North 6.9 mph - N/A   Clear
2:15 AM -5.8 °F -21.2 °F -9.4 °F 84% 30.19 in 10.0 mi North 8.1 mph - N/A   Clear
2:35 AM -5.8 °F -18.4 °F -9.4 °F 84% 30.19 in 10.0 mi NNE 5.8 mph - N/A   Clear
2:55 AM -4.0 °F -19.0 °F -9.4 °F 78% 30.18 in 10.0 mi NNE 8.1 mph - N/A   Clear
3:15 AM -5.8 °F -18.4 °F -9.4 °F 84% 30.17 in 10.0 mi NNE 5.8 mph - N/A   Clear
3:35 AM -5.8 °F -18.4 °F -9.4 °F 84% 30.17 in 10.0 mi NNE 5.8 mph - N/A   Clear
3:55 AM -5.8 °F -16.7 °F -9.4 °F 84% 30.18 in 10.0 mi NNE 4.6 mph - N/A   Clear
4:15 AM -7.6 °F -16.5 °F -11.2 °F 84% 30.17 in 10.0 mi NNE 3.5 mph - N/A   Clear
4:35 AM -7.6 °F -16.5 °F -11.2 °F 84% 30.17 in 10.0 mi North 3.5 mph - N/A   Clear
4:55 AM -5.8 °F - -11.2 °F 77% 30.17 in 10.0 mi Calm Calm - N/A   Clear
5:15 AM -7.6 °F - -13.0 °F 77% 30.17 in 10.0 mi Calm Calm - N/A   Clear
5:35 AM -7.6 °F - -13.0 °F 77% 30.17 in 10.0 mi Calm Calm - N/A   Clear
5:55 AM -7.6 °F - -13.0 °F 77% 30.18 in 10.0 mi Calm Calm - N/A   Clear
6:15 AM -7.6 °F -16.5 °F -11.2 °F 84% 30.17 in 10.0 mi NE 3.5 mph - N/A   Clear
6:35 AM -7.6 °F - -13.0 °F 77% 30.18 in 10.0 mi Calm Calm - N/A   Clear
6:55 AM -9.4 °F - -13.0 °F 84% 30.18 in 10.0 mi Calm Calm - N/A   Clear
7:15 AM -9.4 °F - -14.8 °F 77% 30.18 in 10.0 mi Calm Calm - N/A   Clear
7:35 AM -7.6 °F - -11.2 °F 84% 30.19 in 10.0 mi Calm Calm - N/A   Clear
7:55 AM -9.4 °F - -14.8 °F 77% 30.19 in 10.0 mi Calm Calm - N/A   Clear
8:15 AM -7.6 °F -16.5 °F -13.0 °F 77% 30.18 in 10.0 mi ESE 3.5 mph - N/A   Clear
8:35 AM -5.8 °F -14.5 °F -11.2 °F 77% 30.19 in 10.0 mi SE 3.5 mph - N/A   Clear
8:55 AM -4.0 °F -14.6 °F -7.6 °F 85% 30.19 in 10.0 mi SE 4.6 mph - N/A   Clear
9:15 AM -2.2 °F -12.5 °F -7.6 °F 78% 30.19 in 10.0 mi SE 4.6 mph - N/A   Clear
9:35 AM -0.4 °F -12.0 °F -5.8 °F 78% 30.18 in 10.0 mi SE 5.8 mph - N/A   Clear
9:55 AM 1.4 °F -11.3 °F -2.2 °F 85% 30.19 in 5.0 mi SE 6.9 mph - N/A Snow Light Snow
10:15 AM 1.4 °F -13.5 °F -2.2 °F 85% 30.19 in 10.0 mi SE 9.2 mph - N/A   Clear
10:35 AM 3.2 °F -12.2 °F -0.4 °F 85% 30.19 in 10.0 mi ESE 10.4 mph - N/A   Clear
10:55 AM 5.0 °F -10.0 °F -0.4 °F 78% 30.18 in 10.0 mi SE 10.4 mph - N/A   Clear
11:15 AM 6.8 °F -4.8 °F 1.4 °F 79% 30.18 in 10.0 mi SE 6.9 mph - N/A   Clear
11:35 AM 6.8 °F -6.9 °F 1.4 °F 79% 30.17 in 10.0 mi SE 9.2 mph - N/A   Scattered Clouds
11:55 AM 6.8 °F -8.6 °F 3.2 °F 85% 30.16 in 10.0 mi SSE 11.5 mph - N/A Snow Light Snow
12:15 PM 6.8 °F -7.8 °F 3.2 °F 85% 30.15 in 10.0 mi SSE 10.4 mph - N/A Snow Light Snow
12:35 PM 8.6 °F -5.5 °F 3.2 °F 79% 30.14 in 10.0 mi SSE 10.4 mph - N/A Snow Light Snow
12:55 PM 8.6 °F -5.5 °F 3.2 °F 79% 30.12 in 10.0 mi SE 10.4 mph - N/A Snow Light Snow
1:15 PM 8.6 °F -5.5 °F 3.2 °F 79% 30.11 in 10.0 mi SE 10.4 mph - N/A Snow Light Snow
1:35 PM 10.4 °F -4.1 °F 5.0 °F 79% 30.10 in 10.0 mi SE 11.5 mph - N/A Snow Light Snow
1:55 PM 10.4 °F -4.8 °F 6.8 °F 85% 30.08 in 10.0 mi SE 12.7 mph - N/A   Overcast
2:15 PM 12.2 °F -2.5 °F 6.8 °F 79% 30.07 in 10.0 mi SE 12.7 mph - N/A   Overcast
2:35 PM 12.2 °F -1.8 °F 8.6 °F 85% 30.07 in 10.0 mi SE 11.5 mph - N/A   Overcast
2:55 PM 14.0 °F -0.8 °F 8.6 °F 79% 30.07 in 10.0 mi SE 13.8 mph - N/A   Overcast
3:15 PM 14.0 °F -1.4 °F 8.6 °F 79% 30.06 in 10.0 mi SE 15.0 mph - N/A   Overcast
3:35 PM 14.0 °F -1.4 °F 8.6 °F 79% 30.05 in 10.0 mi SE 15.0 mph - N/A   Overcast
3:55 PM 15.8 °F 1.4 °F 10.4 °F 79% 30.05 in 10.0 mi SE 13.8 mph - N/A   Overcast
4:15 PM 15.8 °F 2.1 °F 10.4 °F 79% 30.05 in 10.0 mi SE 12.7 mph - N/A   Overcast
4:35 PM 15.8 °F 0.9 °F 10.4 °F 79% 30.03 in 10.0 mi SE 15.0 mph - N/A   Overcast
4:55 PM 15.8 °F 0.9 °F 12.2 °F 86% 30.02 in 10.0 mi SE 15.0 mph - N/A   Overcast
5:15 PM 17.6 °F 3.7 °F 12.2 °F 79% 30.01 in 10.0 mi SE 13.8 mph - N/A   Overcast
5:35 PM 17.6 °F 2.7 °F 12.2 °F 79% 30.00 in 10.0 mi SE 16.1 mph - N/A   Overcast
5:55 PM 17.6 °F 1.3 °F 12.2 °F 79% 30.00 in 10.0 mi SE 19.6 mph - N/A   Overcast
6:15 PM 17.6 °F 1.7 °F 12.2 °F 79% 29.99 in 10.0 mi SE 18.4 mph 24.2 mph N/A   Overcast
6:35 PM 17.6 °F 1.7 °F 14.0 °F 86% 29.99 in 10.0 mi SE 18.4 mph - N/A   Overcast
6:55 PM 17.6 °F 2.2 °F 14.0 °F 86% 29.99 in 10.0 mi SE 17.3 mph - N/A   Overcast
7:35 PM 19.4 °F 3.6 °F 14.0 °F 80% 29.96 in 10.0 mi SE 19.6 mph 26.5 mph N/A   Overcast
7:55 PM 19.4 °F 4.1 °F 15.8 °F 86% 29.95 in 10.0 mi SE 18.4 mph - N/A   Overcast
8:15 PM 19.4 °F 4.1 °F 15.8 °F 86% 29.95 in 10.0 mi SE 18.4 mph 27.6 mph N/A   Overcast
8:35 PM 19.4 °F 2.8 °F 15.8 °F 86% 29.94 in 7.0 mi SSE 21.9 mph 27.6 mph N/A   Overcast
8:55 PM 19.4 °F 3.2 °F 15.8 °F 86% 29.93 in 7.0 mi SE 20.7 mph 29.9 mph N/A   Overcast
9:15 PM 19.4 °F 3.6 °F 15.8 °F 86% 29.92 in 7.0 mi SE 19.6 mph 25.3 mph N/A   Overcast
9:35 PM 19.4 °F 2.8 °F 15.8 °F 86% 29.90 in 5.0 mi SE 21.9 mph 28.8 mph N/A   Overcast
9:55 PM 19.4 °F 4.1 °F 15.8 °F 86% 29.89 in 10.0 mi SE 18.4 mph 26.5 mph N/A   Overcast
10:15 PM 19.4 °F 4.5 °F 15.8 °F 86% 29.88 in 7.0 mi SE 17.3 mph 27.6 mph N/A   Overcast
10:35 PM 21.2 °F 3.9 °F 17.6 °F 86% 29.86 in 5.0 mi SSE 26.5 mph 32.2 mph N/A   Overcast
10:55 PM 21.2 °F 3.5 °F 17.6 °F 86% 29.86 in 5.0 mi SSE 27.6 mph 33.4 mph N/A   Overcast
11:15 PM 21.2 °F 4.5 °F 17.6 °F 86% 29.86 in 5.0 mi SSE 24.2 mph 33.4 mph N/A   Overcast
11:35 PM 19.4 °F 1.4 °F 15.8 °F 86% 29.84 in 5.0 mi SE 26.5 mph 32.2 mph N/A   Overcast
11:55 PM 19.4 °F 1.8 °F 15.8 °F 86% 29.83 in 5.0 mi SE 25.3 mph 31.1 mph N/A   Overcast